Regional Weather Roundup
Issued by NWS Columbia, SC

Home | Current Version | Previous Version | Text Only | Print | Product List | Glossary On
Versions: 1 2 3 4 5 6 7 8 9 10 11 12 13 14 15 16 17 18 19 20 21 22 23 24 25 26 27 28 29 30 31 32 33 34 35 36 37 38 39 40 41 42 43 44 45 46 47 48 49 50
000
ASUS42 KCAE 191410
RWRCAE
REGIONAL WEATHER ROUNDUP
NATIONAL WEATHER SERVICE COLUMBIA SC
900 AM EST MON FEB 19 2018

NOTE: "FAIR" INDICATES FEW OR NO CLOUDS BELOW 12,000 FEET WITH NO
SIGNIFICANT WEATHER AND/OR OBSTRUCTIONS TO VISIBILITY.

NOT ALL STATIONS ARE QUALITY CONTROLLED BY THE NATIONAL
WEATHER SERVICE. USE DATA WITH CAUTION...ESPECIALLY
DEWPOINT OBSERVATIONS.

SCZ001>056-GAZ040-063>065-077-191500-
...UPSTATE SOUTH CAROLINA...

CITY           SKY/WX    TMP DP  RH WIND       PRES   REMARKS
ANDERSON       CLOUDY    53  53 100 NE7       30.40R FOG
LIBERTY        CLOUDY    51  51 100 E6        30.40R FOG
SPARTANBURG    CLOUDY    50  48  93 CALM      30.42S FOG
CLEMSON        CLOUDY    52  51  97 NE6       30.41S
GREENVILLE     CLOUDY    51  50  96 NE8       30.42R FOG
GREENWOOD      CLOUDY    52  52 100 E3        30.42R FOG
GREER          CLOUDY    49  49 100 N6        30.42R FOG
ROCK HILL      CLOUDY    50  49  96 VRB3      30.43R
CHESTER        CLOUDY    50  50 100 E5        30.43S FOG
LAURENS        CLOUDY    52  52 100 E5        30.42R FOG


...CENTRAL SOUTH CAROLINA...

CITY           SKY/WX    TMP DP  RH WIND       PRES   REMARKS
COLUMBIA APT   CLOUDY    56  53  90 E8        30.41R
COLUMBIA OWENS CLOUDY    55  52  89 E5        30.43R
MCENTIRE ANGB  CLOUDY    54  52  94 NE6       30.42S
ORANGEBURG     CLOUDY    56  52  86 NE5       30.41R
SUMTER SHAW    FOG       52  50  93 NE8       30.41R VSB 1
NEWBERRY       CLOUDY    52  52 100 CALM      30.45R FOG
AIKEN          CLOUDY    54  54 100 E6        30.43S FOG
BARNWELL         N/A     59  59 100 E5        30.40S FOG
MANNING        CLOUDY    54  50  87 MISG      30.42S FOG
CAMDEN         CLOUDY    50  48  93 CALM      30.44R
LANCASTER      CLOUDY    48  48 100 NE6       30.43S FOG
WINNSBORO      CLOUDY    52  52 100 NE6       30.41S FOG


...EASTERN AND COASTAL SOUTH CAROLINA...

CITY           SKY/WX    TMP DP  RH WIND       PRES   REMARKS
MYRTLE BEACH   PTSUNNY   55  51  86 N6        30.43R
N MYRTLE BCH   PTSUNNY   58  53  84 NE7       30.41S
CONWAY         CLOUDY    52  52 100 N5        30.43S FOG
MARION         CLOUDY    48  46  93 N3        30.44S FOG
HARTSVILLE     FOG       46  46 100 NE6       30.44S VSB 3/4
FLORENCE       FOG       49  48  97 NE7       30.44S VSB 1/2
DARLINGTON     CLOUDY    48  48 100 NE7       30.45S FOG
CHARLESTON APT CLOUDY    60  57  89 NE7       30.40R FOG
MOUNT PLEASANT CLOUDY    57  57 100 CALM      30.40S FOG
WALTERBORO     CLOUDY    55  55 100 NE3       30.41R FOG
BEAUFORT       FOG       61  61 100 NE3       30.39  VSB 1


...EASTERN GEORGIA...

CITY           SKY/WX    TMP DP  RH WIND       PRES   REMARKS
AUGUSTA BUSH F CLOUDY    58  56  93 CALM      30.39R
AUGUSTA DANIEL CLOUDY    59  57  93 E3        30.40R FOG
THOMSON        CLOUDY    56  55  94 S3        30.44S FOG
CLAXTON        CLOUDY    62  61  96 CALM      30.39R FOG
SYLVANIA       CLOUDY    60  60  98 SE3       30.40S FOG
STATESBORO     CLOUDY    62  57  84 CALM      30.39S
SAVANNAH       FOG       60  60 100 NE6       30.40R VSB 1/4


...SOUTHERN NORTH CAROLINA...

CITY           SKY/WX    TMP DP  RH WIND       PRES   REMARKS
CHARLOTTE      CLOUDY    51  49  92 NE6       30.43R
MONROE         CLOUDY    48  48 100 CALM      30.42S FOG
WADESBORO      CLOUDY    48  46  93 E5        30.45R FOG
ROCKINGHAM     CLOUDY    46  46 100 E3        30.45F FOG
RUTHERFORDTON  CLOUDY    47  47 100 CALM      30.44S
ASHEVILLE      CLOUDY    49  48  97 SE5       30.41R

$$



USA.gov is the U.S. government's official web portal to all federal, state and local government web resources and services.